Weather in Shelanger

Russia / Mari El Republic     56°13′07″N   48°15′00″E
temp.,
°C
wind,
m/s
gust,
m/s
humid.,
%
clouds,
%
prec.,
mm/h
press.,
hPa
HPBL,
m
30 june, thu
thu3000:00+10nw2486100 0.0 101562
03:00+10nw2577100 0.0 1014101
06:00+13nw3669100 0.0 1012270
09:00+17nnw47505 0.0 10111353
12:00+20nnw5737100 0.0 10102703
15:00+19nnw354197 0.1 10092514
18:00+11ne2694100 3.9 1011285
21:00+9nne41091100 4.6 1012419
1 july, fri
fri100:00+6n412925 0.0 1013399
03:00+5n4109698 0.0 1013345
06:00+7n4992100 0.3 1013541
09:00+9nne4995100 1.3 1014627
12:00+12ne488769 0.3 1015859
15:00+18ene68569 0.4 10151620
18:00+17ne59715 0.4 10151048
21:00+12nne39794 0.4 1016196
2 july, sat
sat200:00+10nne399030 0.0 1016159
03:00+9nne388357 0.0 1016130
06:00+13nne377061 0.0 1016204
09:00+19nne35495 0.0 10161148
12:00+22nne454114 0.0 10142145
15:00+23nne454235 0.0 10132231
18:00+19n466192 0.0 1013382
21:00+15nne2470100 0.0 101382
3 july, sun
sun300:00+14nne2574100 0.0 1013126
03:00+13nne2382100 0.0 101377
06:00+15nne247767 0.0 1013252
09:00+17nne347599 0.0 1013569
12:00+19n4573100 0.6 1013932
15:00+21nne565874 1.4 10121469
18:00+19n487215 0.3 10131000
21:00+13n33905 0.3 101450
4 july, mon
mon400:00+15nnw3779100 0.0 1014156
03:00+15n248193 0.0 1014104
06:00+17nne257023 0.0 1015201
09:00+20ne355048 0.0 1016918
12:00+23ne353919 0.0 10162175
15:00+23nne444118 0.0 10162077
18:00+21ne35575 0.0 1016396
21:00+15e22764 0.0 101711